Location: Bouillancy
(49.1149°N, 2.9308°E)
Time: 11:21:21
(UTC+00:00)

Meteor 1-21 Rocket - Pass Details

Date: 30 September 2020
Orbit: 834 x 906 km, 81.2° (Epoch: 29 October)

Event Time Altitude Azimuth Distance (km) Brightness Sun altitude
Rises 19:48:34 0° 348° (NNW) 3,497 7.9 -23.3°
Reaches altitude 10° 19:51:01 10° 349° (N) 2,563 7.1 -23.6°
Maximum altitude 19:56:53 82° 78° (ENE) 912 4.2 -24.5°
Enters shadow 19:58:25 52° 158° (SSE) 1,109 4.5 -24.7°
